User: anonymous   Login
Location: Columbia
(38.9520°N, 92.3340°W)
Time: 07:56:53
(UTC-05:00)
Language:

Iridium 22 - Orbit

View from above orbital plane
View from above orbital plane
View from above satellite
View from above satellite

Ground track
Ground track

The orbit data is extracted from the following two-line orbital elements,

1 24907U 97043E   14302.09665245  .00000379  00000-0  12827-3 0   344
2 24907 086.3937 298.1498 0002213 105.3092 320.7346 14.34223074899921
Epoch (UTC): 29 October 2014 02:19:10
Eccentricity: 0.0002213
inclination: 86.3937°
perigee height: 776 km
apogee height: 779 km
right ascension of ascending node: 298.1498°
argument of perigee: 105.3092°
revolutions per day: 14.34223074
mean anomaly at epoch: 320.7346°
orbit number at epoch: 89992

The dashed part of the orbit path shows where the satellite is in the earth's shadow,  

DLR